User: anonymous   Login
Location: Caltech
(34.1382°N, 118.1253°W)
Time: 06:49:54
(UTC-08:00)
Language:

RS-15 - Orbit

View from above orbital plane
View from above orbital plane
View from above satellite
View from above satellite

Ground track
Ground track

The orbit data is extracted from the following two-line orbital elements,

1 23439U 94085A   17346.89988907 -.00000054 +00000-0 -31421-3 0  9991
2 23439 064.8177 290.1165 0163305 215.0869 203.4525 11.27566623945568
Epoch (UTC): 12 December 2017 21:35:50
Eccentricity: 0.0163305
inclination: 64.8177°
perigee height: 1885 km
apogee height: 2159 km
right ascension of ascending node: 290.1165°
argument of perigee: 215.0869°
revolutions per day: 11.27566623
mean anomaly at epoch: 203.4525°
orbit number at epoch: 94556

The dashed part of the orbit path shows where the satellite is in the earth's shadow,  

DLR